DW4221 Weather Reports


time (UTC)temp
C
wind
direction
speed
KPH
gust
KPH
rain 1hr
cm
rain 24hr
cm
rain mn
cm
humidity
%
barometer
mb
20260906003057 20 144 0.0 3.2 0.00 0.00 0.00 88 1019.2
20260906001609 20 0 0.0 0.0 0.00 0.00 0.00 87 1019.1
20260906000057 20 0 0.0 8.0 0.00 0.00 0.00 84 1019.1
20260905234557 21 165 1.6 8.0 0.00 0.00 0.00 83 1018.8
20260905233053 21 145 1.6 6.4 0.00 0.00 0.00 83 1018.7
20260905231609 21 0 4.8 11.3 0.00 0.00 0.00 82 1019.1
20260905230105 21 0 1.6 9.7 0.00 0.00 0.00 81 1019.2
20260905224556 21 108 4.8 14.5 0.00 0.00 0.00 81 1019.3
20260905223055 21 111 4.8 11.3 0.00 0.00 0.00 82 1019.4
20260905221604 21 157 3.2 12.9 0.00 0.00 0.00 83 1019.7
20260905220105 21 98 1.6 9.7 0.00 0.00 0.00 83 1019.5
20260905214602 21 163 3.2 12.9 0.00 0.00 0.00 83 1019.9
20260905213053 21 128 3.2 11.3 0.00 0.00 0.00 83 1019.9
20260905211602 21 90 1.6 9.7 0.00 0.00 0.00 83 1020.2
20260905210115 21 0 0.0 6.4 0.00 0.00 0.00 83 1020.6
20260905204606 21 111 1.6 9.7 0.00 0.00 0.00 83 1020.6
20260905203058 21 159 1.6 11.3 0.00 0.00 0.00 84 1020.6
20260905201555 21 120 1.6 9.7 0.00 0.00 0.00 85 1020.6
20260905200054 20 0 3.2 11.3 0.00 0.00 0.00 85 1020.6
20260905194611 21 141 1.6 9.7 0.00 0.00 0.00 85 1020.7
20260905193054 20 100 3.2 9.7 0.00 0.00 0.00 85 1020.9
20260905191558 20 86 3.2 9.7 0.00 0.00 0.00 85 1020.8
20260905190109 20 144 0.0 8.0 0.00 0.00 0.00 87 1021.0
20260905184621 20 88 3.2 14.5 0.00 0.03 0.00 87 1020.9
20260905183108 20 110 3.2 6.4 0.00 0.03 0.00 88 1020.9
20260905181607 20 109 1.6 4.8 0.00 0.03 0.00 88 1021.1
20260905180104 20 178 3.2 9.7 0.00 0.03 0.00 87 1021.2
20260905174610 20 177 1.6 8.0 0.00 0.03 0.00 88 1020.9
20260905173116 19 131 0.0 9.7 0.00 0.03 0.00 89 1021.0
20260905171624 19 0 0.0 6.4 0.00 0.03 0.00 91 1020.8
20260905164606 18 119 3.2 6.4 0.00 0.03 0.00 89 1021.1
20260905163115 18 121 1.6 6.4 0.00 0.03 0.00 89 1021.0
20260905161604 18 0 0.0 8.0 0.00 0.03 0.00 90 1021.1
20260905154618 17 0 1.6 9.7 0.00 0.03 0.00 92 1021.0
20260905153121 17 0 1.6 11.3 0.00 0.03 0.00 93 1020.8
20260905151605 17 61 0.0 4.8 0.00 0.03 0.00 93 1020.8
20260905150054 16 0 0.0 4.8 0.00 0.03 0.00 93 1021.0
20260905144603 16 13 3.2 8.0 0.00 0.03 0.00 94 1020.6
20260905143054 16 0 0.0 4.8 0.00 0.03 0.00 95 1020.6
20260905141551 16 0 1.6 4.8 0.00 0.03 0.00 95 1020.5
20260905140105 15 0 0.0 3.2 0.00 0.03 0.00 95 1020.6
20260905134601 15 129 1.6 4.8 0.00 0.03 0.00 96 1020.8
20260905133056 15 0 1.6 3.2 0.00 0.03 0.00 96 1020.8
20260905131610 15 0 0.0 3.2 0.00 0.03 0.00 96 1020.8
20260905124601 15 0 0.0 0.0 0.00 0.03 0.00 96 1020.6
20260905123109 15 0 0.0 0.0 0.00 0.03 0.00 96 1019.9
20260905121600 15 0 0.0 0.0 0.00 0.03 0.00 96 1019.8
20260905120104 15 0 0.0 0.0 0.00 0.03 0.00 95 1019.5
20260905114602 15 0 0.0 0.0 0.00 0.03 0.00 95 1019.2
20260905113057 15 0 0.0 0.0 0.00 0.03 0.00 96 1018.9
20260905111642 15 0 0.0 0.0 0.00 0.03 0.00 96 1018.9
20260905110051 15 0 0.0 0.0 0.00 0.03 0.00 96 1018.8
20260905104605 16 0 0.0 3.2 0.00 0.03 0.00 95 1018.9
20260905103104 16 0 0.0 4.8 0.00 0.03 0.00 96 1019.1
20260905101606 16 0 0.0 3.2 0.00 0.03 0.00 96 1019.1
20260905100100 16 0 0.0 4.8 0.00 0.03 0.00 97 1019.0
20260905094607 16 0 0.0 4.8 0.00 0.03 0.00 97 1018.9
20260905093055 16 0 0.0 4.8 0.00 0.03 0.00 97 1019.2
20260905091559 16 0 0.0 0.0 0.00 0.03 0.00 97 1019.2
20260905090055 16 0 0.0 1.6 0.00 0.03 0.00 96 1019.0
20260905084559 16 42 0.0 4.8 0.00 0.03 0.00 96 1019.1
20260905083103 16 115 0.0 3.2 0.00 0.03 0.00 96 1019.2
20260905081601 16 0 0.0 1.6 0.00 0.03 0.00 96 1019.1
20260905080106 16 0 0.0 0.0 0.00 0.03 0.00 96 1019.3
20260905074605 16 0 0.0 0.0 0.00 0.03 0.00 96 1019.2
20260905073104 16 0 0.0 0.0 0.00 0.03 0.00 96 1019.1
20260905071600 16 104 0.0 4.8 0.00 0.03 0.00 96 1019.1
20260905070101 16 0 0.0 3.2 0.00 0.03 0.00 96 1019.0
20260905064606 16 112 0.0 1.6 0.00 1.30 0.00 96 1019.1
20260905063103 16 0 0.0 4.8 0.00 1.30 0.00 95 1019.1
20260905061604 16 0 0.0 4.8 0.00 1.30 0.00 95 1019.1
20260905060058 16 102 0.0 4.8 0.00 1.30 0.00 95 1019.2
20260905054555 16 0 0.0 3.2 0.00 1.37 0.00 95 1019.2
20260905053111 16 0 0.0 6.4 0.00 1.37 0.00 95 1019.2
20260905051601 16 90 3.2 11.3 0.00 1.37 0.00 95 1019.1
20260905044555 16 80 0.0 6.4 0.00 1.37 1.37 95 1018.9
20260905043057 16 77 0.0 3.2 0.00 1.37 1.37 95 1018.7
20260905041606 16 0 0.0 3.2 0.00 1.37 1.37 95 1018.8
20260905040105 17 0 0.0 3.2 0.00 1.37 1.37 94 1018.9
20260905034619 17 0 0.0 0.0 0.00 1.37 1.37 94 1018.9
20260905033119 17 0 0.0 0.0 0.00 1.37 1.37 94 1019.1
20260905031614 17 0 0.0 0.0 0.00 1.37 1.37 94 1019.2
20260905030114 17 0 0.0 0.0 0.00 1.37 1.37 94 1019.1
20260905024605 17 0 0.0 0.0 0.00 1.40 1.37 94 1019.1
20260905023127 17 0 0.0 0.0 0.00 1.40 1.37 94 1019.2
20260905021605 17 0 0.0 0.0 0.00 1.40 1.37 94 1019.1
20260905014606 17 0 1.6 8.0 0.00 3.02 1.37 94 1018.7
20260905013103 17 0 0.0 9.7 0.00 3.02 1.37 94 1018.6
20260905011606 18 0 0.0 4.8 0.00 3.02 1.37 95 1018.3
20260905010112 18 0 0.0 4.8 0.00 3.02 1.37 94 1018.2
20260905004633 18 70 0.0 3.2 0.00 3.02 1.37 94 1017.9